Tracking 35275 objects as of 8-Sep-2026
HD Live streaming from Space Station
objects crossing your sky now

GORIZONT 2

Track GORIZONT 2 now!
GORIZONT 2 is classified as:


NORAD ID: 11440
Int'l Code: 1979-062A
Launch date: July 5, 1979
Source: Commonwealth of Independent States (former USSR) (CIS)
Launch site: TYURATAM MISSILE AND SPACE COMPLEX (TTMTR)
Your satellite tracking list
Your tracking list is empty




NASA's NSSDC Master Catalog

Two Line Element Set (TLE):
1 11440U 79062A   26251.17184225  .00000025  00000-0  00000-0 0  9997
2 11440   5.5368 285.0716 0005759 335.9947 207.9462  1.00266222138850
Source of the keplerian elements: AFSPC